When you browse on this site, cookies collect data to enhance your experience and personalize the content and advertising you see.
Visit our Privacy Policy to learn more. By continuing to use the site, you agree to this use of cookies and data.
  • en France
  • Liste des pays
  • À 7 jours
  • Température de l'eau
  • Carte satellitaire
  • Carte météo
  • Widgets météo
  • user-avatar
    Se connecter

    Météo par heure à Burrel

    Ce jour, 21 Juillet, Dimanche

    Heure Température Précipitation Vent Pression Humidité
    00:00 +22°C° 0 mm 1 m/s 736 mmHg 70%
    01:00 +22°C° 0 mm 1 m/s 736 mmHg 70%
    02:00 +22°C° 0 mm 1 m/s 735 mmHg 69%
    03:00 +21°C° 0 mm 1 m/s 735 mmHg 69%
    04:00 +21°C° 0 mm 1 m/s 735 mmHg 69%
    05:00 +23°C° 0 mm 1 m/s 735 mmHg 66%
    06:00 +25°C° 0 mm 1 m/s 736 mmHg 62%
    07:00 +27°C° 0 mm 1 m/s 736 mmHg 59%
    08:00 +28°C° 0 mm 1 m/s 736 mmHg 53%
    09:00 +30°C° 0 mm 1 m/s 736 mmHg 48%
    10:00 +32°C° 0 mm 1 m/s 736 mmHg 42%
    11:00 +32°C° 0 mm 1 m/s 736 mmHg 41%
    12:00 +32°C° 0 mm 1 m/s 736 mmHg 40%
    13:00 +33°C° 0 mm 1 m/s 736 mmHg 39%
    14:00 +32°C° 0 mm 2 m/s 736 mmHg 42%
    15:00 +32°C° 0 mm 2 m/s 736 mmHg 45%
    16:00 +31°C° 0 mm 2 m/s 735 mmHg 47%
    17:00 +29°C° 0 mm 1 m/s 735 mmHg 55%
    18:00 +27°C° 0 mm 1 m/s 735 mmHg 62%
    19:00 +23°C° 0 mm 0 m/s 735 mmHg 69%
    20:00 +24°C° 0 mm 1 m/s 735 mmHg 68%
    21:00 +24°C° 0 mm 1 m/s 735 mmHg 67%
    22:00 +24°C° 0 mm 1 m/s 736 mmHg 66%
    23:00 +24°C° 0 mm 1 m/s 736 mmHg 66%

    Demain, 22 Juillet, Lundi

    Heure Température Précipitation Vent Pression Humidité
    00:00 +23°C° 0 mm 1 m/s 736 mmHg 66%
    01:00 +23°C° 0 mm 1 m/s 736 mmHg 65%
    02:00 +23°C° 0 mm 1 m/s 735 mmHg 65%
    03:00 +23°C° 0 mm 2 m/s 735 mmHg 65%
    04:00 +23°C° 0 mm 2 m/s 735 mmHg 64%
    05:00 +24°C° 0 mm 2 m/s 735 mmHg 62%
    06:00 +26°C° 0 mm 1 m/s 736 mmHg 60%
    07:00 +28°C° 0 mm 1 m/s 736 mmHg 59%
    08:00 +29°C° 0 mm 2 m/s 736 mmHg 53%
    09:00 +31°C° 0 mm 2 m/s 736 mmHg 47%
    10:00 +32°C° 0 mm 2 m/s 736 mmHg 41%
    11:00 +34°C° 0 mm 2 m/s 736 mmHg 40%
    12:00 +34°C° 0 mm 2 m/s 736 mmHg 38%
    13:00 +35°C° 0 mm 2 m/s 735 mmHg 37%
    14:00 +35°C° 0 mm 2 m/s 735 mmHg 39%
    15:00 +34°C° 0 mm 2 m/s 735 mmHg 40%
    16:00 +34°C° 0 mm 2 m/s 735 mmHg 42%
    17:00 +31°C° 0 mm 2 m/s 735 mmHg 48%
    18:00 +29°C° 0 mm 1 m/s 735 mmHg 54%
    19:00 +27°C° 0 mm 1 m/s 734 mmHg 60%
    20:00 +26°C° 0 mm 1 m/s 735 mmHg 61%
    21:00 +25°C° 0 mm 2 m/s 735 mmHg 61%
    22:00 +25°C° 0 mm 2 m/s 735 mmHg 61%
    23:00 +24°C° 0 mm 2 m/s 735 mmHg 64%

    Après-demain, 23 Juillet, Mardi

    Heure Température Précipitation Vent Pression Humidité
    00:00 +24°C° 0 mm 2 m/s 735 mmHg 67%
    01:00 +23°C° 0 mm 2 m/s 734 mmHg 69%
    02:00 +23°C° 0 mm 2 m/s 734 mmHg 71%
    03:00 +23°C° 0 mm 2 m/s 734 mmHg 73%
    04:00 +21°C° 0 mm 3 m/s 734 mmHg 74%
    05:00 +24°C° 0 mm 3 m/s 734 mmHg 71%
    06:00 +25°C° 0 mm 3 m/s 734 mmHg 68%
    07:00 +26°C° 0 mm 3 m/s 734 mmHg 65%
    08:00 +28°C° 0 mm 3 m/s 734 mmHg 58%
    09:00 +29°C° 0 mm 3 m/s 734 mmHg 51%
    10:00 +31°C° 0 mm 3 m/s 734 mmHg 44%
    11:00 +31°C° 0 mm 3 m/s 734 mmHg 41%
    12:00 +33°C° 0 mm 3 m/s 734 mmHg 38%
    13:00 +34°C° 0 mm 3 m/s 733 mmHg 34%
    14:00 +33°C° 0 mm 3 m/s 733 mmHg 36%
    15:00 +33°C° 0 mm 3 m/s 733 mmHg 38%
    16:00 +33°C° 0 mm 3 m/s 733 mmHg 40%
    17:00 +30°C° 0 mm 3 m/s 733 mmHg 47%
    18:00 +28°C° 0 mm 2 m/s 733 mmHg 54%
    19:00 +26°C° 0 mm 2 m/s 733 mmHg 61%
    20:00 +25°C° 0 mm 2 m/s 733 mmHg 62%
    21:00 +24°C° 0 mm 2 m/s 733 mmHg 62%
    22:00 +24°C° 0 mm 3 m/s 733 mmHg 63%
    23:00 +22°C° 0 mm 3 m/s 733 mmHg 64%

    24 Juillet, Mercredi

    Heure Température Précipitation Vent Pression Humidité
    00:00 +22°C° 0 mm 3 m/s 733 mmHg 64%
    01:00 +21°C° 0 mm 3 m/s 733 mmHg 65%
    02:00 +21°C° 0 mm 3 m/s 733 mmHg 67%
    03:00 +20°C° 0 mm 3 m/s 733 mmHg 68%
    04:00 +20°C° 0 mm 3 m/s 732 mmHg 70%
    05:00 +21°C° 0 mm 3 m/s 733 mmHg 68%
    06:00 +24°C° 0 mm 3 m/s 733 mmHg 66%
    07:00 +25°C° 0 mm 3 m/s 733 mmHg 64%
    08:00 +27°C° 0 mm 3 m/s 733 mmHg 58%
    09:00 +28°C° 0 mm 3 m/s 733 mmHg 53%
    10:00 +30°C° 0 mm 3 m/s 733 mmHg 48%
    11:00 +31°C° 0 mm 3 m/s 733 mmHg 46%
    12:00 +31°C° 0 mm 3 m/s 733 mmHg 45%
    13:00 +33°C° 0 mm 3 m/s 733 mmHg 43%
    14:00 +33°C° 0 mm 3 m/s 733 mmHg 44%
    15:00 +33°C° 0 mm 3 m/s 733 mmHg 45%
    16:00 +33°C° 0 mm 3 m/s 732 mmHg 47%
    17:00 +30°C° 0 mm 3 m/s 732 mmHg 53%
    18:00 +28°C° 0 mm 2 m/s 732 mmHg 59%
    19:00 +26°C° 0 mm 2 m/s 732 mmHg 65%
    20:00 +25°C° 0 mm 2 m/s 733 mmHg 66%
    21:00 +24°C° 0 mm 2 m/s 733 mmHg 67%
    22:00 +22°C° 0 mm 3 m/s 733 mmHg 68%
    23:00 +22°C° 0 mm 3 m/s 733 mmHg 69%

    25 Juillet, Jeudi

    Heure Température Précipitation Vent Pression Humidité
    00:00 +21°C° 0 mm 3 m/s 733 mmHg 70%
    01:00 +21°C° 0 mm 3 m/s 733 mmHg 71%
    02:00 +21°C° 0 mm 3 m/s 733 mmHg 72%
    03:00 +20°C° 0 mm 3 m/s 733 mmHg 73%
    04:00 +20°C° 0 mm 3 m/s 733 mmHg 73%
    05:00 +22°C° 0 mm 3 m/s 733 mmHg 70%
    06:00 +24°C° 0 mm 2 m/s 733 mmHg 67%
    07:00 +26°C° 0 mm 2 m/s 733 mmHg 64%
    08:00 +27°C° 0 mm 2 m/s 734 mmHg 58%
    09:00 +29°C° 0 mm 2 m/s 734 mmHg 53%
    10:00 +31°C° 0 mm 2 m/s 734 mmHg 47%
    11:00 +32°C° 0 mm 2 m/s 734 mmHg 45%
    12:00 +33°C° 0 mm 1 m/s 733 mmHg 42%
    13:00 +34°C° 0 mm 1 m/s 733 mmHg 40%
    14:00 +33°C° 0 mm 1 m/s 733 mmHg 42%
    15:00 +33°C° 0 mm 1 m/s 733 mmHg 44%
    16:00 +32°C° 0 mm 1 m/s 732 mmHg 46%
    17:00 +30°C° 0 mm 1 m/s 732 mmHg 54%
    18:00 +28°C° 0 mm 1 m/s 732 mmHg 61%
    19:00 +23°C° 0 mm 0 m/s 732 mmHg 69%
    20:00 +25°C° 0 mm 1 m/s 732 mmHg 69%
    21:00 +25°C° 0 mm 1 m/s 733 mmHg 69%
    22:00 +24°C° 0 mm 1 m/s 733 mmHg 70%
    23:00 +24°C° 0 mm 1 m/s 733 mmHg 70%

    26 Juillet, Vendredi

    Heure Température Précipitation Vent Pression Humidité
    00:00 +24°C° 0 mm 1 m/s 733 mmHg 69%
    01:00 +23°C° 0 mm 1 m/s 733 mmHg 69%
    02:00 +23°C° 0 mm 2 m/s 733 mmHg 69%
    03:00 +23°C° 0 mm 2 m/s 732 mmHg 69%
    04:00 +23°C° 0 mm 2 m/s 732 mmHg 69%
    05:00 +24°C° 0 mm 1 m/s 732 mmHg 65%
    06:00 +26°C° 0 mm 1 m/s 732 mmHg 62%
    07:00 +28°C° 0 mm 1 m/s 733 mmHg 58%
    08:00 +29°C° 0 mm 1 m/s 733 mmHg 53%
    09:00 +31°C° 0 mm 1 m/s 733 mmHg 48%
    10:00 +31°C° 0 mm 0 m/s 733 mmHg 43%
    11:00 +34°C° 0 mm 1 m/s 732 mmHg 41%
    12:00 +34°C° 0 mm 1 m/s 732 mmHg 40%
    13:00 +34°C° 0 mm 1 m/s 732 mmHg 39%
    14:00 +35°C° 0 mm 2 m/s 731 mmHg 41%
    15:00 +34°C° 0 mm 2 m/s 731 mmHg 43%
    16:00 +32°C° 0 mm 2 m/s 731 mmHg 45%
    17:00 +30°C° 0 mm 1 m/s 730 mmHg 53%
    18:00 +28°C° 0 mm 1 m/s 730 mmHg 61%
    19:00 +24°C° 0 mm 0 m/s 730 mmHg 69%
    20:00 +25°C° 0 mm 1 m/s 730 mmHg 69%
    21:00 +25°C° 0 mm 1 m/s 731 mmHg 69%
    22:00 +24°C° 0 mm 1 m/s 731 mmHg 69%
    23:00 +24°C° 0 mm 1 m/s 731 mmHg 69%
    Voir plus